#timestamp,LO_Frequency,Hit,StdDev 
1505768415.1,286047010.3,N
1505768435.9,286047010.0,N
1505768455.7,286047008.9,N
1505768475.5,286047006.0,N
1505768495.3,286047004.3,N
1505768515.2,286047002.1,N
1505768535.0,286047005.9,N
1505768535.9,286047005.9,N
1505768555.7,286047003.7,N
1505768575.6,286047006.0,N
1505768595.4,286047004.9,N
1505768615.2,286047008.5,N
1505768635.1,286047010.4,N
1505768636.0,286047010.4,N
1505768655.8,286047007.3,N
1505768675.6,286047007.5,N
1505768695.5,286047005.0,N
1505768715.3,286047005.9,N
1505768735.1,286047000.5,N
1505768755.9,286046998.3,N
1505768775.7,286047001.8,N
1505768795.5,286047002.2,N
1505768815.3,286047002.7,N
1505768835.2,286047000.5,N
1505768855.0,286047000.6,N
1505768855.9,286047000.6,N
1505768875.7,286047004.7,N
1505768895.6,286047007.7,N
1505768915.4,286047006.3,N
1505768935.2,286046999.4,N
1505768955.1,286047000.8,N
1505768956.0,286047000.8,N
1505768975.8,286047002.8,N
1505768995.6,286047009.6,Y
1505769015.5,286047008.1,P
1505769035.3,286047013.0,P
1505769055.1,286047011.9,P
1505769075.9,286047014.8,Y
1505769095.7,286047003.0,P
1505769115.5,286047004.6,N
1505769135.4,286047008.6,P
1505769155.2,286047012.3,Y
1505769175.0,286047002.6,P
1505769175.9,286047002.6,N
1505769195.8,286047003.6,N
1505769215.6,286047006.7,Y
1505769235.4,286047005.7,P
1505769255.3,286047008.7,P
1505769275.1,286047008.7,P
1505769295.8,286047008.9,Y
1505769315.7,286047005.4,P
1505769335.5,286047007.4,P
1505769355.3,286047004.1,P
1505769375.2,286046999.9,N
1505769395.9,286047002.8,N
1505769415.7,286047002.8,N
1505769435.6,286047001.3,N
1505769455.4,286047001.8,N
1505769475.2,286047001.4,N
1505769495.1,286047002.5,N
1505769496.0,286047002.5,N
1505769515.8,286047004.0,N
1505769535.6,286046998.1,N
1505769555.5,286047001.1,N
1505769575.3,286047002.7,N
1505769595.1,286047003.6,N
1505769615.8,286047004.2,N
1505769635.7,286047003.5,N
1505769655.5,286047004.7,N
1505769675.3,286047008.5,Y
1505769695.2,286047004.6,P
1505769715.0,286047003.1,P
1505769715.9,286047003.1,P
1505769735.7,286047000.4,N
1505769755.6,286046997.9,N
1505769775.4,286046995.1,N
1505769795.2,286046997.6,N
1505769815.1,286046998.7,N
1505769816.0,286046998.7,N
1505769835.8,286046999.4,N
1505769855.6,286046999.4,N
1505769875.5,286046997.4,N
1505769895.3,286046996.1,N
1505769915.1,286046987.3,Y
1505769935.9,286046982.2,P
1505769955.7,286046985.2,N
1505769975.5,286046987.1,N
1505769995.4,286046987.6,N
1505770015.2,286046987.9,N
1505770035.0,286046986.8,N
1505770035.9,286046986.8,N
1505770055.8,286046982.8,Y
1505770075.6,286046992.8,P
1505770095.4,286046994.3,N
1505770115.3,286046993.2,N
1505770135.1,286046990.1,Y
1505770136.0,286046990.1,P
1505770155.8,286047003.1,P
1505770175.7,286047005.7,N
1505770195.5,286047004.6,N
1505770215.3,286047001.3,N
1505770235.1,286047002.3,N
1505770255.9,286046999.9,N
1505770275.7,286046999.8,N
1505770295.5,286047000.4,N
1505770315.4,286047001.8,N
1505770335.2,286047003.0,N
1505770355.0,286047005.8,N
1505770355.9,286047005.8,N
1505770375.8,286047005.1,N
1505770395.6,286047005.4,N
1505770415.4,286047004.2,N
1505770435.3,286047000.3,N
1505770455.1,286046996.9,N
1505770456.0,286046996.9,N
1505770475.8,286046996.4,N
1505770495.7,286046993.1,N
1505770515.5,286046992.5,N
1505770535.3,286046996.8,N
1505770555.1,286046998.9,N
1505770575.9,286046996.5,N
1505770595.7,286046997.4,N
1505770615.5,286046996.1,N
1505770635.4,286046995.3,N
1505770655.2,286046999.3,N
1505770675.0,286046998.2,N
1505770675.9,286046998.2,N
1505770695.8,286046997.7,N
1505770715.6,286046996.0,N
1505770735.4,286046995.5,N
1505770755.3,286046995.8,N
1505770775.1,286046997.5,N
1505770776.0,286046997.5,N
1505770795.8,286046996.0,N
1505770815.7,286046993.6,N
1505770835.5,286046995.7,N
1505770855.3,286046996.4,N
1505770875.2,286046997.0,N
1505770895.9,286046998.2,N
1505770915.7,286047001.1,N
1505770935.5,286046997.0,N
1505770955.4,286046995.0,N
1505770975.2,286046995.8,N
1505770995.1,286046994.4,Y
1505770996.0,286046994.4,P
1505771015.8,286046996.5,P
1505771035.6,286046996.7,P
1505771055.5,286046998.4,N
1505771075.3,286046995.0,Y
1505771095.1,286046999.7,P
1505771115.9,286047007.3,P
1505771135.7,286047010.1,N
1505771155.5,286047012.9,N
1505771175.3,286047018.2,N
1505771195.2,286047021.7,N
1505771215.0,286047023.6,N
1505771215.9,286047023.6,N
1505771235.7,286047022.5,N
1505771255.6,286047024.2,N
1505771275.4,286047025.6,N
1505771295.2,286047025.6,N
1505771315.1,286047027.9,N
1505771316.0,286047027.9,N
1505771335.8,286047025.8,N
1505771355.6,286047025.4,N
1505771375.5,286047025.6,N
1505771395.3,286047028.7,Y
1505771415.1,286047012.0,P
1505771435.9,286047011.2,P
1505771455.7,286047012.3,P
1505771475.5,286047011.8,Y
1505771495.4,286046997.6,P
1505771515.2,286046998.7,N
1505771535.0,286046995.0,N
1505771535.9,286046995.0,N
1505771555.8,286046999.6,N
1505771575.6,286046993.7,N
1505771595.4,286046996.8,N
1505771615.3,286046999.0,N
1505771635.1,286047001.0,N
1505771636.0,286047001.0,N
1505771655.8,286046999.9,N
1505771675.7,286047001.8,N
1505771695.5,286047006.0,N
1505771715.3,286047004.0,N
1505771735.1,286047003.7,N
1505771755.9,286047002.5,N
1505771775.7,286046999.8,N
1505771795.5,286047000.8,N
1505771815.4,286047000.3,N
1505771835.2,286047004.4,N
1505771855.0,286047003.1,N
1505771855.9,286047003.1,N
1505771875.8,286047000.1,N
1505771895.6,286047001.0,N
1505771915.4,286046994.9,N
1505771935.3,286046994.5,N
1505771955.1,286046994.5,N
1505771956.0,286046994.5,N
1505771975.8,286046990.1,N
1505771995.7,286046991.1,N
